Other Public Products
Issued by NWS Grand Forks, ND

Home | Current Version | Previous Version | Text Only | Print | Product List | Glossary On
Versions: 1 2 3 4 5 6 7 8 9 10 11 12 13 14 15 16 17 18 19 20 21 22 23 24 25 26 27 28 29 30 31 32 33 34 35 36 37 38 39 40 41 42 43 44 45 46 47 48 49 50
000
FPUS83 KFGF 122131
OPUFGF
PRAIRIE TO PINES WEATHER ROUNDUP
NATIONAL WEATHER SERVICE EASTERN NORTH DAKOTA/GRAND FORKS ND
400 PM CDT SAT JUL 12 2014

 **SATELLITE DATA USED TO AUGMENT SKY COVER AT AUTOMATED STATIONS**
 *****  WEATHER ACROSS EASTERN NORTH DAKOTA  *****

CITY           SKY/WX    TMP DP  RH WIND       PRES   REMARKS
GRAND FORKS    PTSUNNY   79  56  45 W18       29.91F
GRAND FORKS AF NOT AVBL
GRAND CITY NWS   N/A     81 N/A N/A W15         N/A
BUXTON           N/A     80  59  47 W10G26      N/A
DEVILS LAKE    SUNNY     79  54  41 W20G28    29.94F
FARGO          MOSUNNY   80  57  45 W15       29.95F
WAHPETON ARPT  MOCLDY    77  54  44 NW10G17   29.98F
$$

 *****  WEATHER ACROSS CENTRAL AND WESTERN NORTH DAKOTA  *****

CITY           SKY/WX    TMP DP  RH WIND       PRES   REMARKS
JAMESTOWN      SUNNY     79  57  46 NW18      30.00F
BISMARCK       MOSUNNY   84  57  39 NW13G21   30.05F
MINOT          SUNNY     79  49  34 W17G32    30.01F
MINOT AFB      NOT AVBL
GARRISON         N/A     78  57  48 NW16G25   30.05S
WILLISTON      MOSUNNY   84  45  25 NW17G29   30.08F
DICKINSON      MOSUNNY   79  59  50 W8        30.09F
HETTINGER      SUNNY     81  59  47 W8        30.13F
$$

 *****  OTHER OBSERVATIONS NORTHEAST NORTH DAKOTA  *****

CITY           SKY/WX    TMP DP  RH WIND       PRES   REMARKS
WALHALLA       FAIR      77  54  44 W20G32      N/A
LANGDON        FAIR      77  52  41 W22G32    29.91F
CAVALIER       FAIR      79  54  41 W22G33    29.87F
GRAFTON        FAIR      77  55  47 W23G30    29.89F
CANDO          FAIR      77  54  44 W22G32    29.94F
FORT TOTTEN      N/A     78  57  47 NW8       29.95
ROLLA            N/A     75  52  43 W25G33    29.94F
RUGBY          FAIR      75  54  46 W22G31    29.96F
 ***** THE ABOVE OBSERVATIONS ARE NON NWS ARE NOT QUALITY
        CONTROLLED AND MAY MIS-REPORT RAIN FOR SNOW...
$$

 *****  OTHER OBSERVATIONS SOUTHEAST NORTH DAKOTA *****

CITY           SKY/WX    TMP DP  RH WIND       PRES   REMARKS
COOPERSTOWN    NOT AVBL
VALLEY CITY    FAIR      79  57  47 NW17G25   29.98F
OAKES          NOT AVBL
GWINNER        PTCLDY    79  61  53 NW8       30.01F
BUFFALO          N/A     81  50  34 W14         N/A
WYNDMERE       NOT AVBL
 ***** THE ABOVE OBSERVATIONS ARE NON NWS ARE NOT QUALITY
       CONTROLLED AND MAY MIS-REPORT RAIN FOR SNOW...
$$

  *****  WEATHER ACROSS NORTHERN MINNESOTA  *****

CITY           SKY/WX    TMP DP  RH WIND       PRES   REMARKS
FLAG ISLAND    MOSUNNY   73  52  46 W16G25    29.82R
WARROAD        MOSUNNY   75  57  53 W17G29    29.86F
ROSEAU         SUNNY     77  55  47 W20G28    29.86F
HALLOCK        SUNNY     81  48  32 W22G31    29.86F
THF RVR FALLS  PTSUNNY   75  54  46 W14G23    29.91F
HALSTAD          N/A     79  54  41 W13         N/A
FOSSTON        PTSUNNY   75  55  50 W13G20    29.95F
BAUDETTE       PTSUNNY   75  54  47 SW12G28   29.87F
WASKISH        PTSUNNY   73  57  56 SW16      29.90F
CROOKSTON      SUNNY     79  57  47 W18       29.92F
$$
  *****  WEATHER ACROSS CENTRAL AND WEST MINNESOTA  *****

CITY           SKY/WX    TMP DP  RH WIND       PRES   REMARKS
BEMIDJI        CLOUDY    74  56  51 W13G18    29.93F
PARK RAPIDS    PTSUNNY   75  58  55 W12       29.97F
WADENA         PTSUNNY   72  59  64 W12       29.97F
DETROIT LAKES  PTSUNNY   75  59  57 W10       29.99F
MOORHEAD       MOSUNNY   81  55  41 W12G22    29.96F
FERGUS FALLS   PTSUNNY   75  55  50 W9        29.98F
ELBOW LAKE     FAIR      75  61  60 W10       29.99F
MORRIS MN      PTSUNNY   75  63  64 NW8       29.99F
STAPLES        CLOUDY    73  57  56 W10       29.97F
WHEATON        PTSUNNY   75  61  60 NW10      30.01F
$$
  *****  WEATHER ELSEWHERE ACROSS MINNESOTA  *****

CITY           SKY/WX    TMP DP  RH WIND       PRES   REMARKS
DULUTH         CLOUDY    73  58  59 W8        29.95F
INTRNTL FALLS  PTSUNNY   74  54  49 SW15G25   29.87F
ELY            CLOUDY    72  55  56 SW8       29.91F
CLOQUET        CLOUDY    73  55  53 SW7       29.94F
BRAINERD       CLOUDY    77  59  53 W10       29.97F
HIBBING        CLOUDY    75  58  55 SW8       29.93F
ALEXANDRIA     CLOUDY    73  60  63 NW9       30.01F
SAINT CLOUD    CLOUDY    71  64  78 W5        29.97F
MINNEAPOLIS    CLOUDY    72  68  87 W6        29.98F
$$

  *****  WEATHER ACROSS SOUTH DAKOTA  *****

CITY           SKY/WX    TMP DP  RH WIND       PRES   REMARKS
SIOUX FALLS    MOSUNNY   81  66  60 NE7       30.01F
BROOKINGS      NOT AVBL
WATERTOWN      MOSUNNY   74  65  73 VRB6      30.04F
HURON          PTSUNNY   78  66  66 N5        30.04F
SISSETON         N/A     80  59  48 NW9       29.99F
ABERDEEN       MOSUNNY   79  61  53 W9        30.03F
MITCHELL       MOSUNNY   80  66  62 SE3       30.03F
PIERRE         SUNNY     79  63  57 N10       30.07F
MOBRIDGE       SUNNY     79  64  60 NW9       30.05F
RAPID CITY     MOSUNNY   76  63  64 CALM      30.16S
$$

  *****  SOME WEATHER IN NEARBY STATES *****

CITY           SKY/WX    TMP DP  RH WIND       PRES   REMARKS
GLASGOW MT     NOT AVBL
GREAT FALLS MT SUNNY     86  38  18 E5        30.21F
CHEYENNE WY    MOSUNNY   76  53  44 N15G24    30.32F
SCOTTSBLUFF NE PTSUNNY   80  62  54 VRB3      30.21F
OMAHA NE       PTSUNNY   83  71  67 N15       29.97S
DES MOINES IA  PTSUNNY   88  74  63 NW7       29.93F HX  96
DAVENPORT IA   PTSUNNY   85  75  72 S10       29.95F HX  93
CHICAGO IL     CLOUDY    79  69  71 SW13G20   29.97F
EAU CLAIRE WI  LGT RAIN  66  66 100 NW6       29.98R
LA CROSSE WI   LGT RAIN  70  67  90 CALM      29.97S
$$

  *****  SOME NATIONAL WEATHER *****

CITY           SKY/WX    TMP DP  RH WIND       PRES   REMARKS
LA GUARDIA NY  MOSUNNY   82  57  42 S18       30.16F
RALEIGH NC     MOSUNNY   88  66  48 S7        30.18F HX  90
ATLANTA GA     MOSUNNY   87  65  47 SE6       30.15F
NEW ORLEANS LA MOSUNNY   91  71  51 NE3       30.08F HX  97
OKLAHOMA CITY  MOSUNNY   95  58  28 S12       30.07F HX  94
ALBUQUERQUE NM MOSUNNY   88  52  29 SW6       30.18F
SALT LAKE CITY MOSUNNY   92  52  25 N8        30.15F
LOS ANGELES CA PTSUNNY   73  61  65 W12       30.00S
BOISE ID       SUNNY     98  37  12 W12G17    30.09F HX  93
SEATTLE WA     MOSUNNY   86  56  35 W7        30.11S
$$

*** WEATHER ACROSS MANITOBA...SASKATCHEWAN AND ONTARIO ***
                ***ONTARIO***

CITY           SKY/WX    TMP DP  RH WIND       PRES   REMARKS
GERALDTON      PTSUNNY   73  50  43 W12       29.84F
THUNDER BAY    PTSUNNY   72  57  60 S15       29.87F
SIOUX LOOKOUT  MOSUNNY   73  48  40 SW12G20   29.79F
TORONTO        PTSUNNY   81  59  47 S13G20    30.07F
BIG TROUT LK   RAIN      55  54  94 W13G29    29.66R FOG
PICKLE LAKE    PTSUNNY   72  43  35 SW16G23   29.75F
DRYDEN         PTSUNNY   75  48  38 SW20G28   29.80F
KENORA         CLOUDY    75  50  41 W24G33    29.82S
$$
                *** MANITOBA***

CITY           SKY/WX    TMP DP  RH WIND       PRES   REMARKS
BRANDON        PTSUNNY   66  57  72 NW15G23   29.92F
DAUPHIN        SUNNY     70  45  40 N18       29.90R
ISLAND LAKE    LGT RAIN  57  52  82 W14       29.65F
PILOT MOUND      N/A     73  54  49 W16G24      N/A
THE PAS        LGT RAIN N/A N/A N/A NW20        N/A
THOMPSON       LGT RAIN  48  48 100 NW12G17   29.68R
WINNIPEG       LGT RAIN  59  55  88 NW9       29.89S
LYNN LAKE      CLOUDY    54  43  66 N26G36    29.80R
CHURCHILL      LGT RAIN  43  43 100 N15       29.51R FOG
GILLAM         LGT RAIN  57  48  72 W14G23    29.53F
$$
                ***SASKATCHEWAN***

CITY           SKY/WX    TMP DP  RH WIND       PRES   REMARKS
ESTEVAN        MOSUNNY   79  52  38 NW18G30   30.03S
KINDERSLEY     MOSUNNY   77  55  47 NW13G20   30.16S
LLOYDMINSTER   SUNNY     72  48  43 NW12      30.17
PRINCE ALBERT  MOSUNNY   68  43  40 NW18G26   30.05S
REGINA         MOSUNNY   73  57  56 NW22G31   30.06R
YORKTON        MOSUNNY   68  41  37 NW23G33   29.98R


USA.gov is the U.S. government's official web portal to all federal, state and local government web resources and services.